| time (UTC) | temp C | wind direction | speed KPH | gust KPH | rain 1hr cm | rain 24hr cm | rain mn cm | humidity % | barometer mb |
| 20260503211255 | 15 | 249 | 4.8 | 8.0 | 0.00 | 0.00 | 0.00 | 42 | 1013.8 |
| 20260503210755 | 15 | 92 | 3.2 | 3.2 | 0.00 | 0.00 | 0.00 | 40 | 1013.7 |
| 20260503210254 | 15 | 317 | 4.8 | 4.8 | 0.00 | 0.00 | 0.00 | 40 | 1013.9 |
| 20260503205748 | 15 | 289 | 4.8 | 4.8 | 0.00 | 0.00 | 0.00 | 40 | 1014.0 |
| 20260503205245 | 15 | 297 | 3.2 | 3.2 | 0.00 | 0.00 | 0.00 | 42 | 1013.9 |
| 20260503204741 | 14 | 309 | 4.8 | 8.0 | 0.00 | 0.00 | 0.00 | 42 | 1014.1 |
| 20260503204239 | 13 | 273 | 4.8 | 4.8 | 0.00 | 0.00 | 0.00 | 41 | 1014.1 |
| 20260503203737 | 13 | 295 | 11.3 | 12.9 | 0.00 | 0.00 | 0.00 | 40 | 1014.5 |
| 20260503203234 | 14 | 56 | 1.6 | 1.6 | 0.00 | 0.00 | 0.00 | 41 | 1014.2 |
| 20260503202731 | 14 | 308 | 3.2 | 3.2 | 0.00 | 0.00 | 0.00 | 41 | 1014.4 |
| 20260503202229 | 15 | 216 | 4.8 | 4.8 | 0.00 | 0.00 | 0.00 | 40 | 1014.6 |
| 20260503201726 | 13 | 46 | 0.0 | 1.6 | 0.00 | 0.00 | 0.00 | 43 | 1014.5 |
| 20260503201223 | 14 | 302 | 4.8 | 8.0 | 0.00 | 0.00 | 0.00 | 39 | 1014.5 |
| 20260503200719 | 13 | 326 | 4.8 | 4.8 | 0.00 | 0.00 | 0.00 | 40 | 1014.4 |
| 20260503200216 | 15 | 263 | 6.4 | 8.0 | 0.00 | 0.00 | 0.00 | 39 | 1014.5 |
| 20260503195713 | 15 | 264 | 6.4 | 8.0 | 0.00 | 0.00 | 0.00 | 39 | 1014.6 |
| 20260503195210 | 14 | 357 | 1.6 | 3.2 | 0.00 | 0.00 | 0.00 | 41 | 1014.7 |
| 20260503194707 | 14 | 53 | 1.6 | 1.6 | 0.00 | 0.00 | 0.00 | 41 | 1014.8 |
| 20260503194203 | 13 | 121 | 3.2 | 3.2 | 0.00 | 0.00 | 0.00 | 40 | 1014.7 |
| 20260503193659 | 14 | 264 | 8.0 | 11.3 | 0.00 | 0.00 | 0.00 | 39 | 1015.1 |
| 20260503193155 | 14 | 303 | 3.2 | 4.8 | 0.00 | 0.00 | 0.00 | 41 | 1015.0 |
| 20260503192651 | 14 | 294 | 8.0 | 8.0 | 0.00 | 0.00 | 0.00 | 42 | 1014.9 |
| 20260503192147 | 13 | 334 | 3.2 | 4.8 | 0.00 | 0.00 | 0.00 | 42 | 1015.0 |
| 20260503191644 | 13 | 356 | 1.6 | 3.2 | 0.00 | 0.00 | 0.00 | 44 | 1015.0 |
| 20260503191141 | 13 | 293 | 4.8 | 4.8 | 0.00 | 0.00 | 0.00 | 43 | 1015.4 |
| 20260503190638 | 14 | 331 | 1.6 | 3.2 | 0.00 | 0.00 | 0.00 | 43 | 1015.4 |
| 20260503190135 | 13 | 214 | 4.8 | 4.8 | 0.00 | 0.00 | 0.00 | 42 | 1015.5 |
| 20260503185632 | 13 | 285 | 8.0 | 9.7 | 0.00 | 0.00 | 0.00 | 44 | 1015.4 |
| 20260503185126 | 13 | 284 | 8.0 | 9.7 | 0.00 | 0.00 | 0.00 | 42 | 1015.6 |
| 20260503184622 | 12 | 301 | 4.8 | 4.8 | 0.00 | 0.00 | 0.00 | 43 | 1015.7 |
| 20260503184119 | 13 | 272 | 3.2 | 4.8 | 0.00 | 0.00 | 0.00 | 43 | 1015.6 |
| 20260503183615 | 13 | 228 | 6.4 | 11.3 | 0.00 | 0.00 | 0.00 | 43 | 1015.8 |
| 20260503183113 | 14 | 180 | 4.8 | 4.8 | 0.00 | 0.00 | 0.00 | 42 | 1015.7 |
| 20260503182611 | 13 | 259 | 4.8 | 4.8 | 0.00 | 0.00 | 0.00 | 43 | 1015.8 |
| 20260503182109 | 13 | 282 | 4.8 | 4.8 | 0.00 | 0.00 | 0.00 | 41 | 1015.8 |
| 20260503181605 | 13 | 291 | 4.8 | 8.0 | 0.00 | 0.00 | 0.00 | 43 | 1015.9 |
| 20260503181102 | 13 | 357 | 3.2 | 4.8 | 0.00 | 0.00 | 0.00 | 45 | 1015.9 |
| 20260503180559 | 12 | 23 | 1.6 | 1.6 | 0.00 | 0.00 | 0.00 | 45 | 1016.0 |
| 20260503180057 | 12 | 247 | 3.2 | 4.8 | 0.00 | 0.00 | 0.00 | 45 | 1016.2 |
| 20260503175554 | 12 | 274 | 4.8 | 4.8 | 0.00 | 0.00 | 0.00 | 45 | 1015.9 |
| 20260503175051 | 13 | 260 | 6.4 | 8.0 | 0.00 | 0.00 | 0.00 | 44 | 1016.3 |
| 20260503174548 | 13 | 269 | 4.8 | 4.8 | 0.00 | 0.00 | 0.00 | 44 | 1016.1 |
| 20260503174044 | 12 | 281 | 6.4 | 8.0 | 0.00 | 0.00 | 0.00 | 43 | 1016.3 |
| 20260503173539 | 12 | 290 | 8.0 | 9.7 | 0.00 | 0.00 | 0.00 | 42 | 1016.3 |
| 20260503173036 | 13 | 83 | 3.2 | 4.8 | 0.00 | 0.00 | 0.00 | 44 | 1016.3 |
| 20260503172534 | 13 | 313 | 6.4 | 8.0 | 0.00 | 0.00 | 0.00 | 42 | 1016.5 |
| 20260503172030 | 12 | 293 | 3.2 | 4.8 | 0.00 | 0.00 | 0.00 | 45 | 1016.4 |
| 20260503171527 | 13 | 357 | 8.0 | 11.3 | 0.00 | 0.00 | 0.00 | 41 | 1016.4 |
| 20260503171024 | 11 | 15 | 3.2 | 3.2 | 0.00 | 0.00 | 0.00 | 43 | 1016.3 |
| 20260503170520 | 12 | 0 | 3.2 | 4.8 | 0.00 | 0.00 | 0.00 | 44 | 1016.8 |
| 20260503150913 | 9 | 129 | 3.2 | 4.8 | 0.00 | 0.00 | 0.00 | 48 | 1017.3 |
| 20260503150409 | 9 | 271 | 6.4 | 11.3 | 0.00 | 0.00 | 0.00 | 49 | 1017.7 |
| 20260503131303 | 5 | 283 | 3.2 | 3.2 | 0.00 | 0.00 | 0.00 | 79 | 1018.3 |
| 20260503130800 | 5 | 325 | 3.2 | 4.8 | 0.00 | 0.00 | 0.00 | 79 | 1018.1 |
| 20260503130257 | 4 | 333 | 3.2 | 3.2 | 0.00 | 0.00 | 0.00 | 81 | 1018.3 |
| 20260503120218 | 1 | 353 | 0.0 | 0.0 | 0.00 | 0.00 | 0.00 | 99 | 1017.8 |
| 20260503110645 | 0 | 355 | 0.0 | 0.0 | 0.00 | 0.00 | 0.00 | 99 | 1017.4 |
| 20260503110142 | 0 | 355 | 0.0 | 0.0 | 0.00 | 0.00 | 0.00 | 99 | 1017.4 |
| 20260503100109 | 0 | 355 | 0.0 | 0.0 | 0.00 | 0.00 | 0.00 | 99 | 1016.8 |
| 20260503081452 | 0 | 355 | 0.0 | 0.0 | 0.00 | 0.00 | 0.00 | 99 | 1016.8 |
| 20260503080949 | 0 | 355 | 0.0 | 0.0 | 0.00 | 0.00 | 0.00 | 99 | 1016.5 |
| 20260503080446 | 0 | 355 | 0.0 | 0.0 | 0.00 | 0.00 | 0.00 | 99 | 1016.8 |
| 20260503072922 | 0 | 355 | 0.0 | 0.0 | 0.00 | 0.00 | 0.00 | 99 | 1016.6 |
| 20260503072419 | 0 | 355 | 0.0 | 0.0 | 0.00 | 0.00 | 0.00 | 99 | 1016.4 |
| 20260503071916 | 0 | 355 | 0.0 | 0.0 | 0.00 | 0.00 | 0.00 | 99 | 1016.3 |
| 20260503071414 | 0 | 355 | 0.0 | 0.0 | 0.00 | 0.00 | 0.00 | 99 | 1016.4 |
| 20260503070909 | 0 | 355 | 0.0 | 0.0 | 0.00 | 0.00 | 0.00 | 99 | 1016.3 |
| 20260503070407 | 0 | 355 | 0.0 | 0.0 | 0.00 | 0.00 | 0.00 | 99 | 1016.6 |
| 20260503060333 | 0 | 355 | 0.0 | 0.0 | 0.00 | 0.00 | 0.00 | 99 | 1016.5 |
| 20260503054821 | 0 | 355 | 0.0 | 0.0 | 0.00 | 0.00 | 0.00 | 99 | 1016.6 |
| 20260503054316 | -17 | 0.0 | 0.0 | 0.00 | 0.00 | 0.00 | 1016.9 | ||
| 20260503053814 | -17 | 0.0 | 0.0 | 0.00 | 0.00 | 0.00 | 1016.4 | ||
| 20260503053313 | 0 | 355 | 0.0 | 0.0 | 0.00 | 0.00 | 0.00 | 99 | 1016.5 |
| 20260503052808 | 0 | 355 | 0.0 | 0.0 | 0.00 | 0.00 | 0.00 | 99 | 1016.6 |
| 20260503052306 | 0 | 355 | 0.0 | 0.0 | 0.00 | 0.00 | 0.00 | 99 | 1016.9 |
| 20260503051801 | 0 | 355 | 0.0 | 0.0 | 0.00 | 0.00 | 0.00 | 99 | 1016.9 |
| 20260503051258 | -17 | 0.0 | 0.0 | 0.00 | 0.00 | 0.00 | 1017.0 | ||
| 20260503050755 | 0 | 355 | 0.0 | 0.0 | 0.00 | 0.00 | 0.00 | 98 | 1017.0 |
| 20260503050251 | 0 | 355 | 0.0 | 0.0 | 0.00 | 0.00 | 0.00 | 98 | 1017.1 |
| 20260503045749 | -17 | 0.0 | 0.0 | 0.00 | 0.00 | 0.00 | 1017.0 | ||
| 20260503045247 | -17 | 0.0 | 0.0 | 0.00 | 0.00 | 0.00 | 1017.1 | ||
| 20260503044742 | -17 | 0.0 | 0.0 | 0.00 | 0.00 | 0.00 | 1017.1 | ||
| 20260503044239 | -17 | 0.0 | 0.0 | 0.00 | 0.00 | 0.00 | 1017.1 | ||
| 20260503043736 | -17 | 0.0 | 0.0 | 0.00 | 0.00 | 0.00 | 1017.0 | ||
| 20260503043228 | 0 | 355 | 0.0 | 0.0 | 0.00 | 0.13 | 0.13 | 98 | 1017.0 |
| 20260503042724 | 0 | 355 | 0.0 | 0.0 | 0.00 | 0.13 | 0.13 | 98 | 1017.0 |
| 20260503042221 | 0 | 355 | 0.0 | 0.0 | 0.00 | 0.13 | 0.13 | 98 | 1017.1 |
| 20260503041716 | 0 | 355 | 0.0 | 0.0 | 0.00 | 0.13 | 0.13 | 97 | 1016.9 |
| 20260503041215 | 0 | 355 | 0.0 | 0.0 | 0.00 | 0.13 | 0.13 | 97 | 1017.1 |
| 20260503040712 | 0 | 355 | 0.0 | 0.0 | 0.00 | 0.13 | 0.13 | 97 | 1017.1 |
| 20260503040209 | 0 | 355 | 0.0 | 0.0 | 0.00 | 0.13 | 0.13 | 97 | 1017.2 |
| 20260503035706 | 0 | 355 | 0.0 | 0.0 | 0.00 | 0.13 | 0.13 | 97 | 1017.1 |
| 20260503035203 | 0 | 355 | 0.0 | 0.0 | 0.00 | 0.13 | 0.13 | 96 | 1017.3 |
| 20260503034701 | 0 | 355 | 0.0 | 0.0 | 0.00 | 0.13 | 0.13 | 96 | 1017.1 |
| 20260503034157 | 0 | 355 | 0.0 | 0.0 | 0.00 | 0.13 | 0.13 | 96 | 1016.9 |
| 20260503033655 | 0 | 355 | 0.0 | 0.0 | 0.00 | 0.13 | 0.13 | 96 | 1017.1 |
| 20260503033152 | 0 | 355 | 0.0 | 0.0 | 0.00 | 0.13 | 0.13 | 96 | 1017.2 |
| 20260503032650 | 0 | 355 | 0.0 | 0.0 | 0.00 | 0.13 | 0.13 | 95 | 1017.2 |
| 20260503032149 | 0 | 355 | 0.0 | 0.0 | 0.00 | 0.13 | 0.13 | 95 | 1017.2 |
| 20260503031645 | 1 | 355 | 0.0 | 0.0 | 0.00 | 0.13 | 0.13 | 95 | 1017.0 |
| 20260503031143 | 1 | 355 | 0.0 | 0.0 | 0.00 | 0.13 | 0.13 | 95 | 1016.9 |
| 20260503030633 | 1 | 354 | 0.0 | 0.0 | 0.00 | 0.13 | 0.13 | 95 | 1017.0 |
| 20260503030130 | 1 | 355 | 0.0 | 0.0 | 0.00 | 0.13 | 0.13 | 93 | 1017.0 |
| 20260503025627 | 1 | 355 | 0.0 | 0.0 | 0.00 | 0.13 | 0.13 | 93 | 1017.4 |
| 20260503025125 | 1 | 354 | 0.0 | 0.0 | 0.00 | 0.13 | 0.13 | 93 | 1017.3 |
| 20260503024621 | 1 | 354 | 0.0 | 0.0 | 0.00 | 0.13 | 0.13 | 92 | 1017.1 |
| 20260503024118 | 1 | 354 | 0.0 | 0.0 | 0.00 | 0.13 | 0.13 | 92 | 1017.2 |
| 20260503023615 | 1 | 354 | 0.0 | 0.0 | 0.00 | 0.13 | 0.13 | 92 | 1017.2 |
| 20260503023113 | 2 | 354 | 0.0 | 0.0 | 0.00 | 0.13 | 0.13 | 92 | 1017.4 |
| 20260503022608 | 2 | 354 | 0.0 | 0.0 | 0.00 | 0.13 | 0.13 | 92 | 1017.4 |
| 20260503022103 | 2 | 354 | 0.0 | 0.0 | 0.00 | 0.13 | 0.13 | 92 | 1017.3 |
| 20260503021601 | 2 | 354 | 0.0 | 0.0 | 0.00 | 0.13 | 0.13 | 91 | 1017.3 |
| 20260503021057 | 2 | 354 | 0.0 | 0.0 | 0.00 | 0.13 | 0.13 | 91 | 1017.3 |
| 20260503020554 | 2 | 354 | 0.0 | 0.0 | 0.00 | 0.13 | 0.13 | 90 | 1017.1 |
| 20260503020051 | 2 | 354 | 0.0 | 0.0 | 0.00 | 0.13 | 0.13 | 89 | 1017.2 |
| 20260503015547 | 2 | 354 | 0.0 | 0.0 | 0.00 | 0.13 | 0.13 | 88 | 1017.2 |
| 20260503015045 | 2 | 354 | 0.0 | 0.0 | 0.00 | 0.13 | 0.13 | 86 | 1017.2 |
| 20260503014540 | 2 | 354 | 0.0 | 0.0 | 0.00 | 0.13 | 0.13 | 85 | 1017.0 |
| 20260503014039 | 3 | 354 | 0.0 | 0.0 | 0.00 | 0.13 | 0.13 | 84 | 1017.2 |
| 20260503013536 | 3 | 354 | 0.0 | 0.0 | 0.00 | 0.13 | 0.13 | 84 | 1017.2 |
| 20260503013034 | 3 | 354 | 0.0 | 0.0 | 0.00 | 0.13 | 0.13 | 83 | 1017.3 |
| 20260503012531 | 3 | 354 | 0.0 | 0.0 | 0.00 | 0.13 | 0.13 | 81 | 1017.0 |
| 20260503012027 | 3 | 354 | 0.0 | 0.0 | 0.00 | 0.13 | 0.13 | 80 | 1017.1 |
| 20260503011524 | 3 | 354 | 0.0 | 0.0 | 0.00 | 0.13 | 0.13 | 79 | 1017.1 |
| 20260503011021 | 3 | 354 | 0.0 | 0.0 | 0.00 | 0.13 | 0.13 | 79 | 1017.1 |
| 20260503010517 | 4 | 354 | 0.0 | 0.0 | 0.00 | 0.13 | 0.13 | 78 | 1017.1 |
| 20260503010015 | 4 | 354 | 0.0 | 0.0 | 0.00 | 0.13 | 0.13 | 77 | 1017.0 |
| 20260503005512 | 4 | 354 | 0.0 | 0.0 | 0.00 | 0.13 | 0.13 | 77 | 1017.2 |
| 20260503005009 | 4 | 354 | 1.6 | 1.6 | 0.00 | 0.13 | 0.13 | 78 | 1017.1 |
| 20260503004505 | 4 | 354 | 0.0 | 1.6 | 0.00 | 0.13 | 0.13 | 78 | 1017.0 |
| 20260503004003 | 4 | 354 | 1.6 | 1.6 | 0.00 | 0.13 | 0.13 | 78 | 1016.8 |
| 20260503003500 | 4 | 354 | 0.0 | 1.6 | 0.00 | 0.13 | 0.13 | 76 | 1016.9 |
| 20260503002957 | 4 | 352 | 1.6 | 1.6 | 0.00 | 0.13 | 0.13 | 77 | 1016.6 |
| 20260503002454 | 4 | 357 | 1.6 | 1.6 | 0.00 | 0.13 | 0.13 | 78 | 1016.5 |
| 20260503001950 | 4 | 357 | 0.0 | 0.0 | 0.00 | 0.13 | 0.13 | 80 | 1016.9 |
| 20260503001447 | 4 | 357 | 0.0 | 1.6 | 0.00 | 0.13 | 0.13 | 78 | 1016.8 |
| 20260503000944 | 4 | 357 | 0.0 | 0.0 | 0.00 | 0.13 | 0.13 | 75 | 1016.4 |
| 20260503000441 | 5 | 356 | 0.0 | 0.0 | 0.00 | 0.13 | 0.13 | 76 | 1016.4 |
| 20260502235939 | 5 | 355 | 1.6 | 1.6 | 0.00 | 0.13 | 0.13 | 74 | 1016.5 |
| 20260502235435 | 5 | 353 | 1.6 | 1.6 | 0.00 | 0.13 | 0.13 | 74 | 1016.3 |
| 20260502234933 | 5 | 358 | 1.6 | 1.6 | 0.00 | 0.13 | 0.13 | 75 | 1016.4 |
| 20260502234429 | 5 | 358 | 0.0 | 1.6 | 0.00 | 0.13 | 0.13 | 74 | 1016.3 |
| 20260502233927 | 5 | 358 | 1.6 | 1.6 | 0.00 | 0.13 | 0.13 | 75 | 1016.4 |
| 20260502233421 | 5 | 0 | 1.6 | 1.6 | 0.00 | 0.13 | 0.13 | 76 | 1016.2 |
| 20260502232919 | 5 | 0 | 1.6 | 1.6 | 0.00 | 0.13 | 0.13 | 76 | 1016.6 |
| 20260502232415 | 5 | 314 | 3.2 | 4.8 | 0.00 | 0.13 | 0.13 | 77 | 1016.4 |
| 20260502231912 | 5 | 358 | 1.6 | 1.6 | 0.00 | 0.13 | 0.13 | 78 | 1016.3 |
| 20260502231410 | 5 | 0 | 0.0 | 0.0 | 0.00 | 0.13 | 0.13 | 77 | 1016.2 |
| 20260502230908 | 5 | 330 | 3.2 | 3.2 | 0.00 | 0.13 | 0.13 | 76 | 1016.4 |
| 20260502230406 | 5 | 2 | 1.6 | 1.6 | 0.00 | 0.13 | 0.13 | 77 | 1016.4 |
| 20260502225903 | 5 | 3 | 1.6 | 1.6 | 0.00 | 0.13 | 0.13 | 77 | 1016.4 |
| 20260502225359 | 5 | 4 | 0.0 | 0.0 | 0.00 | 0.13 | 0.13 | 76 | 1016.4 |
| 20260502224856 | 5 | 3 | 1.6 | 1.6 | 0.00 | 0.13 | 0.13 | 77 | 1016.5 |
| 20260502224351 | 5 | 354 | 1.6 | 1.6 | 0.00 | 0.13 | 0.13 | 78 | 1016.4 |
| 20260502223849 | 5 | 337 | 1.6 | 3.2 | 0.00 | 0.13 | 0.13 | 76 | 1016.3 |
| 20260502223347 | 5 | 342 | 1.6 | 3.2 | 0.00 | 0.13 | 0.13 | 77 | 1016.2 |
| 20260502222844 | 5 | 307 | 3.2 | 4.8 | 0.00 | 0.13 | 0.13 | 78 | 1016.3 |
| 20260502222342 | 5 | 6 | 0.0 | 0.0 | 0.00 | 0.13 | 0.13 | 78 | 1016.6 |
| 20260502221838 | 5 | 9 | 1.6 | 3.2 | 0.00 | 0.13 | 0.13 | 77 | 1016.4 |
| 20260502221334 | 5 | 321 | 4.8 | 4.8 | 0.00 | 0.13 | 0.13 | 78 | 1016.3 |
| 20260502220832 | 5 | 11 | 1.6 | 1.6 | 0.00 | 0.13 | 0.13 | 79 | 1016.4 |
| 20260502220327 | 5 | 0 | 0.0 | 0.0 | 0.00 | 0.13 | 0.13 | 77 | 1016.3 |
| 20260502215824 | 5 | 343 | 3.2 | 3.2 | 0.00 | 0.13 | 0.13 | 77 | 1016.4 |
| 20260502215322 | 5 | 322 | 4.8 | 4.8 | 0.00 | 0.13 | 0.13 | 78 | 1016.5 |
| 20260502214818 | 5 | 313 | 4.8 | 4.8 | 0.00 | 0.13 | 0.13 | 78 | 1016.2 |
| 20260502214315 | 5 | 357 | 3.2 | 3.2 | 0.00 | 0.13 | 0.13 | 77 | 1016.1 |
| 20260502213812 | 5 | 299 | 3.2 | 3.2 | 0.00 | 0.13 | 0.13 | 79 | 1016.3 |
| 20260502213308 | 5 | 321 | 3.2 | 3.2 | 0.00 | 0.13 | 0.13 | 78 | 1016.3 |
| 20260502212808 | 5 | 355 | 1.6 | 3.2 | 0.00 | 0.13 | 0.13 | 79 | 1016.2 |
| 20260502212300 | 5 | 335 | 3.2 | 3.2 | 0.00 | 0.13 | 0.13 | 79 | 1016.2 |
| 20260502211756 | 5 | 298 | 4.8 | 4.8 | 0.00 | 0.13 | 0.13 | 77 | 1016.3 |